Location: Krasnoyarskiy Pitomnik
(51.1333°N, 71.6167°E)
Time: 23:07:37
(UTC+00:00)

Vanguard 1 - Pass Details

Date: 13 April 2024
Orbit: 651 x 3826 km, 34.2° (Epoch: 18 May)

Event Time Altitude Azimuth Distance (km) Brightness Sun altitude
Rises 22:41:33 0° 190° (S) 7,709 14.2 -14.7°
Reaches altitude 10° 22:51:34 10° 169° (S) 6,127 13.9 -13.4°
Maximum altitude 22:58:20 13° 147° (SSE) 5,311 13.8 -12.5°
Drops below altitude 10° 23:04:03 10° 124° (SE) 5,028 14.0 -11.7°
Sets 23:10:14 0° 100° (E) 5,342 14.7 -10.9°
